Terminal Aerodrome Forecast
Issued by NWS Norman, OK

Home | Current Version | Previous Version | Text Only | Print | Product List | Glossary On
Versions: 1 2 3 4 5 6 7 8 9 10 11 12 13 14 15 16 17 18 19 20 21 22 23 24 25 26 27
000
FTUS44 KOUN 290243 AAA
TAFSPS
TAF AMD
KSPS 290243Z 2903/2924 15008KT P6SM BKN120
      TEMPO 2903/2905 -SHRA BKN060
     FM291700 18005KT P6SM SCT120=

USA.gov is the U.S. government's official web portal to all federal, state and local government web resources and services.